Weather History for KBKL - September, 2013

Change the Weather History Date:

Sunday, September 15, 2013

  Actual Average (KCLE) Record (KCLE)
Temperature  
Mean Temperature 62 °F 65 °F  
Max Temperature 71 °F 74 °F 93 °F (1991)
Min Temperature 52 °F 56 °F 37 °F (1871)
Degree Days  
Heating Degree Days 4 2  
Month to date heating degree days 21  
Since 1 July heating degree days 33  
Cooling Degree Days 0 3  
Month to date cooling degree days 61  
Year to date cooling degree days 776  
Growing Degree Days 12 (Base 50)    
Moisture  
Dew Point 49 °F    
Average Humidity 66    
Maximum Humidity 86    
Minimum Humidity 42    
Precipitation  
Precipitation 0.01 in 0.13 in - ()
Month to date precipitation 1.86  
Year to date precipitation 27.40  
Snow  
Snow 0.00 in 0.00 in - ()
Month to date snowfall 0.0  
Since 1 July snowfall 0.0  
Since 1 September snowfall 0.0  
Snow Depth -    
Sea Level Pressure  
Sea Level Pressure 30.11 in    
Wind  
Wind Speed 7 mph (South)    
Max Wind Speed 10 mph    
Max Gust Speed -    
Visibility 10 miles    
Events Rain    
T = Trace of Precipitation, MM = Missing Value Source: NWS Daily Summary

Daily Weather History Graph

Daily Weather History Graph

Search for Another Location

Airport or City:

Trip Planner

Search our weather history database for the weather conditions in past years. The results will help you decide how hot, cold, wet, or windy it might be!

Date:

Astronomy

Sep. 15, 2013 Rise Set
Actual Time 7:07 AM EDT 7:35 PM EDT
Civil Twilight 6:39 AM EDT 8:03 PM EDT
Nautical Twilight 6:06 AM EDT 8:36 PM EDT
Astronomical Twilight 5:32 AM EDT 9:09 PM EDT
Moon 5:04 PM EDT (9/15) 2:41 AM EDT (9/15)
Length of Visible Light 13h 23m
Length of Day
12h 28m
Waxing Gibbous, 82% of the Moon is Illuminated
Sep 15
Waxing Gibbous
Sep 19
Full
Sep 26
Last Quarter
Oct 4
New
Oct 11
First Quarter

Hourly Weather History & Observations

Time (EDT) Temp. Dew Point Humidity Pressure Visibility Wind Dir Wind Speed Gust Speed Precip Events Conditions
12:53 AM 55.0 °F 46.9 °F 74% 30.12 in 10.0 mi SSE 8.1 mph - N/A   Clear
1:53 AM 54.0 °F 46.9 °F 77% 30.12 in 10.0 mi SSE 8.1 mph - N/A   Clear
2:53 AM 53.1 °F 46.9 °F 80% 30.11 in 10.0 mi SSE 9.2 mph - N/A   Clear
3:53 AM 52.0 °F 46.9 °F 83% 30.11 in 10.0 mi SSE 10.4 mph - N/A   Clear
4:53 AM 53.1 °F 46.9 °F 80% 30.12 in 10.0 mi SSE 6.9 mph - N/A   Clear
5:53 AM 52.0 °F 46.0 °F 80% 30.12 in 10.0 mi SSE 6.9 mph - N/A   Clear
6:53 AM 53.1 °F 46.0 °F 77% 30.14 in 10.0 mi SSE 4.6 mph - N/A   Clear
7:53 AM 53.1 °F 45.0 °F 74% 30.15 in 10.0 mi SSE 5.8 mph - N/A   Clear
8:53 AM 55.9 °F 46.0 °F 69% 30.16 in 10.0 mi South 4.6 mph - N/A   Clear
9:53 AM 61.0 °F 46.9 °F 60% 30.16 in 10.0 mi South 5.8 mph - N/A   Clear
10:53 AM 66.0 °F 46.9 °F 50% 30.15 in 10.0 mi SSW 9.2 mph - N/A   Clear
11:53 AM 66.9 °F 48.0 °F 51% 30.13 in 10.0 mi WSW 9.2 mph - N/A   Clear
12:53 PM 69.1 °F 46.0 °F 44% 30.11 in 10.0 mi SSW 6.9 mph - N/A   Clear
1:53 PM 70.0 °F 46.0 °F 42% 30.09 in 10.0 mi WSW 5.8 mph - N/A   Clear
2:53 PM 71.1 °F 46.9 °F 42% 30.08 in 10.0 mi SE 8.1 mph - N/A   Clear
3:53 PM 69.1 °F 48.0 °F 47% 30.08 in 10.0 mi SSW 8.1 mph - N/A   Clear
4:53 PM 69.1 °F 46.0 °F 44% 30.07 in 10.0 mi South 5.8 mph - N/A   Partly Cloudy
5:53 PM 66.9 °F 48.0 °F 51% 30.06 in 10.0 mi South 8.1 mph - N/A   Mostly Cloudy
6:53 PM 66.9 °F 48.9 °F 52% 30.06 in 10.0 mi South 4.6 mph - N/A   Overcast
7:53 PM 66.0 °F 51.1 °F 59% 30.09 in 10.0 mi Calm Calm - N/A   Overcast
8:53 PM 64.0 °F 55.0 °F 73% 30.09 in 10.0 mi Calm Calm - 0.00 in Rain Light Rain
9:53 PM 63.0 °F 55.9 °F 78% 30.10 in 10.0 mi Calm Calm - 0.00 in Rain Light Rain
10:53 PM 62.1 °F 57.0 °F 84% 30.10 in 10.0 mi NNE 5.8 mph - 0.01 in   Overcast
11:42 PM 62.6 °F 57.2 °F 82% 30.11 in 10.0 mi NNE 8.1 mph - N/A   Overcast
11:53 PM 62.1 °F 57.9 °F 86% 30.10 in 10.0 mi NNE 8.1 mph - N/A   Overcast